Date,TemperatureHighF,TemperatureAvgF,TemperatureLowF,DewpointHighF,DewpointAvgF,DewpointLowF,HumidityHigh,HumidityAvg,HumidityLow,PressureMaxIn,PressureMinIn,WindSpeedMaxMPH,WindSpeedAvgMPH,GustSpeedMaxMPH,PrecipitationSumIn
2013-8-1,95,83,74,79,75,68,95,78,56,30.02,29.91,14,2,21,0.77
2013-8-2,95,85,77,78,76,72,92,74,50,30.01,29.91,10,2,10,0.00
2013-8-3,94,86,77,80,76,73,91,74,57,30.06,29.96,13,2,14,0.03
2013-8-4,93,85,80,79,77,75,94,78,62,30.06,29.96,13,2,15,0.04
2013-8-5,95,87,83,80,78,76,84,74,58,29.99,29.90,12,3,12,0.00
2013-8-6,96,82,76,83,77,72,96,84,58,29.96,29.85,13,1,15,0.98
2013-8-7,97,82,76,80,76,70,95,84,51,29.93,29.86,14,2,17,0.12
2013-8-8,96,83,74,79,76,71,95,81,52,29.99,29.88,10,2,12,0.61
2013-8-9,96,82,73,79,75,71,96,82,47,30.02,29.92,9,2,11,1.21
2013-8-10,96,84,74,79,75,73,96,77,49,30.08,29.99,8,2,10,0.00
2013-8-11,98,87,79,79,76,73,91,73,48,30.11,30.02,8,2,10,0.00
2013-8-12,97,86,78,81,78,75,92,79,51,30.09,29.97,9,1,9,0.11
2013-8-13,96,86,79,80,77,75,90,75,54,30.01,29.90,10,2,12,0.00
2013-8-14,96,86,77,80,76,72,89,75,52,29.97,29.88,11,1,13,0.25
2013-8-15,96,85,77,78,76,73,91,76,54,30.00,29.91,12,2,13,0.01
2013-8-16,96,86,79,77,75,72,91,73,49,30.01,29.93,7,1,8,0.00
2013-8-17,95,83,76,80,76,70,96,80,58,30.04,29.94,12,2,16,0.19
2013-8-18,96,82,76,79,76,74,96,85,53,30.06,29.97,10,2,13,0.34
2013-8-19,97,82,72,79,75,68,96,83,43,30.03,29.92,12,2,16,1.20
2013-8-20,97,81,71,79,74,65,97,82,52,30.05,29.95,22,1,26,0.40
2013-8-21,96,81,72,80,75,68,96,85,54,30.06,29.94,21,2,21,0.84
2013-8-22,94,80,72,79,75,70,96,86,57,30.05,29.95,8,2,12,1.18
2013-8-23,95,82,76,80,76,72,96,82,51,29.98,29.92,10,2,10,0.01
2013-8-24,94,81,75,80,75,72,95,83,58,30.09,29.96,17,2,17,0.58
2013-8-25,91,80,73,78,74,71,95,85,62,30.12,30.03,10,1,11,0.51
2013-8-26,93,80,74,79,75,73,95,84,55,30.12,29.96,13,1,14,0.53
2013-8-27,94,80,74,77,74,70,96,82,47,30.01,29.94,8,1,9,0.16
2013-8-28,94,82,71,76,73,69,95,77,51,30.03,29.93,9,1,11,0.01
2013-8-29,93,83,74,77,74,71,93,75,55,30.00,29.91,10,2,12,0.00
2013-8-30,94,83,78,79,76,71,91,80,59,29.96,29.86,9,1,10,0.03
2013-8-31,93,81,73,78,75,71,96,82,57,29.96,29.85,11,1,14,0.67